Location: Ertl Road
(44.1464°N, 88.2943°W)
Time: 12:30:41
(UTC-06:00)

ISS - Visible Passes

Search period start: 19 January 2021 00:00
Search period end: 29 January 2021 00:00
Orbit: 418 x 419 km, 51.6° (Epoch: 20 January)

Date Brightness Start Highest point End Pass type
(mag) Time Alt. Az. Time Alt. Az. Time Alt. Az.
19 Jan -3.6 18:39:21 10° SW 18:42:24 65° S 18:42:24 65° S visible
20 Jan -3.1 17:51:50 10° SSW 17:55:01 42° SE 17:56:50 21° E visible
20 Jan -0.9 19:28:42 10° W 19:29:48 18° W 19:29:48 18° W visible
21 Jan -3.2 18:40:45 10° WSW 18:44:02 50° NNW 18:44:10 50° NNW visible
22 Jan -3.7 17:52:53 10° WSW 17:56:14 75° NNW 17:58:29 20° NE visible
22 Jan -0.8 19:30:34 10° WNW 19:31:26 15° WNW 19:31:26 15° WNW visible
23 Jan -2.4 18:42:30 10° W 18:45:31 29° NNW 18:45:41 29° N visible
24 Jan -2.7 17:54:27 10° W 17:57:36 37° NNW 17:59:54 16° NE visible
24 Jan -0.7 19:32:19 10° NW 19:32:50 13° NW 19:32:50 13° NW visible
25 Jan -2.0 18:44:17 10° WNW 18:47:01 23° N 18:47:01 23° N visible
26 Jan -2.1 17:56:13 10° WNW 17:59:04 25° N 18:01:11 14° NE visible
26 Jan -0.6 19:33:45 10° NW 19:34:08 12° NW 19:34:08 12° NW visible
27 Jan -2.0 18:45:51 10° NW 18:48:17 22° N 18:48:17 22° N visible
28 Jan -2.0 17:57:53 10° NW 18:00:36 22° N 18:02:27 15° NE visible
28 Jan -0.7 19:34:54 10° NW 19:35:23 13° NW 19:35:23 13° NW visible
